Houma, LA

2:58 PM CDT on September 22, 2017 (GMT -0500)
Houma-terrebonne

Weather History for KHUM - January, 2014

Change the Weather History Date:

Sunday, January 19, 2014

  Actual Average Record
Temperature  
Mean Temperature 57 °F -  
Max Temperature 69 °F 64 °F 82 °F (1950)
Min Temperature 45 °F 45 °F 19 °F (1977)
Degree Days  
Heating Degree Days 8    
Growing Degree Days 7 (Base 50)    
Moisture  
Dew Point 43 °F    
Average Humidity 72    
Maximum Humidity 94    
Minimum Humidity 18    
Precipitation  
Precipitation 0.00 in - - ()
Sea Level Pressure  
Sea Level Pressure 30.17 in    
Wind  
Wind Speed 5 mph (WSW)    
Max Wind Speed 14 mph    
Max Gust Speed -    
Visibility 8 miles    
Events      
Averages and records for this station are not official NWS values.
T = Trace of Precipitation, MM = Missing Value Source: NWS Daily Summary

Daily Weather History Graph

Daily Weather History Graph

Search for Another Location

Airport or City:

Trip Planner

Search our weather history database for the weather conditions in past years. The results will help you decide how hot, cold, wet, or windy it might be!

Date:

Astronomy

Jan. 19, 2014 Rise Set
Actual Time 6:57 AM CST 5:29 PM CST
Civil Twilight 6:32 AM CST 5:55 PM CST
Nautical Twilight 6:03 AM CST 6:24 PM CST
Astronomical Twilight 5:34 AM CST 6:52 PM CST
Moon 8:48 PM CST (1/19) 8:45 AM CST (1/19)
Length of Visible Light 11h 22m
Length of Day
10h 31m
Waning Gibbous, 89% of the Moon is Illuminated
Jan 19
Waning Gibbous
Jan 23
Last Quarter
Jan 30
New
Feb 6
First Quarter
Feb 14
Full

Hourly Weather History & Observations

Time (CST) Temp. Windchill Dew Point Humidity Pressure Visibility Wind Dir Wind Speed Gust Speed Precip Events Conditions
12:15 AM 55.4 °F - 49.1 °F 79% 30.12 in 7.0 mi SSW 5.8 mph - N/A   Clear
12:35 AM 55.9 °F - 49.5 °F 79% 30.12 in 7.0 mi SW 6.9 mph - N/A   Clear
12:55 AM 56.3 °F - 49.5 °F 78% 30.12 in 10.0 mi SW 5.8 mph - N/A   Scattered Clouds
1:15 AM 56.1 °F - 49.5 °F 78% 30.12 in 7.0 mi WSW 3.5 mph - N/A   Mostly Cloudy
1:35 AM 55.4 °F - 49.3 °F 80% 30.12 in 7.0 mi WSW 4.6 mph - N/A   Scattered Clouds
1:55 AM 54.1 °F - 49.1 °F 83% 30.12 in 10.0 mi West 3.5 mph - N/A   Mostly Cloudy
2:15 AM 53.6 °F - 48.7 °F 84% 30.13 in 7.0 mi WNW 4.6 mph - N/A   Overcast
2:35 AM 53.8 °F - 49.1 °F 84% 30.13 in 7.0 mi WSW 3.5 mph - N/A   Overcast
2:55 AM 53.2 °F - 48.6 °F 84% 30.14 in 7.0 mi West 3.5 mph - N/A   Mostly Cloudy
3:15 AM 53.1 °F - 48.6 °F 85% 30.14 in 10.0 mi West 3.5 mph - N/A   Mostly Cloudy
3:35 AM 53.2 °F - 48.7 °F 85% 30.15 in 7.0 mi West 3.5 mph - N/A   Mostly Cloudy
3:55 AM 53.6 °F - 49.1 °F 85% 30.15 in 7.0 mi WSW 3.5 mph - N/A   Scattered Clouds
4:15 AM 53.2 °F - 49.1 °F 86% 30.15 in 7.0 mi West 4.6 mph - N/A   Clear
4:35 AM 52.7 °F - 48.9 °F 87% 30.15 in 7.0 mi WSW 3.5 mph - N/A   Clear
4:55 AM 50.9 °F - 48.2 °F 90% 30.15 in 7.0 mi WSW 3.5 mph - N/A   Clear
5:55 AM 50.0 °F - 48.2 °F 94% 30.17 in 7.0 mi WSW 5.8 mph - N/A   Scattered Clouds
6:55 AM 53.6 °F - 51.8 °F 94% 30.19 in 7.0 mi WNW 13.8 mph - N/A   Mostly Cloudy
7:55 AM 55.4 °F - 51.8 °F 88% 30.22 in 7.0 mi WNW 11.5 mph - N/A   Scattered Clouds
8:55 AM 59.0 °F - 48.2 °F 67% 30.23 in 7.0 mi NW 11.5 mph - N/A   Partly Cloudy
9:55 AM 62.6 °F - 44.6 °F 52% 30.25 in 7.0 mi NW 11.5 mph - N/A   Clear
10:50 AM 64.4 °F - 42.8 °F 45% 30.25 in 7.0 mi NNW 8.1 mph - N/A   Clear
11:49 AM 66.2 °F - 32.0 °F 28% 30.23 in 7.0 mi NNW 8.1 mph - N/A   Clear
12:49 PM 66.2 °F - 24.8 °F 21% 30.20 in 7.0 mi NW 8.1 mph - N/A   Clear
1:50 PM 68.0 °F - 24.8 °F 20% 30.17 in 7.0 mi West 3.5 mph - N/A   Clear
2:50 PM 69.8 °F - 26.6 °F 20% 30.17 in 7.0 mi SW 9.2 mph - N/A   Clear
3:51 PM 68.0 °F - 23.0 °F 18% 30.17 in 7.0 mi NNW 6.9 mph - N/A   Clear
4:48 PM 64.4 °F - 28.4 °F 26% 30.17 in 7.0 mi West 6.9 mph - N/A   Clear
5:48 PM 53.6 °F - 35.6 °F 51% 30.17 in 7.0 mi WSW 6.9 mph - N/A   Clear
6:15 PM 50.7 °F - 35.8 °F 57% 30.16 in 7.0 mi SE 4.6 mph - N/A   Clear
6:48 PM 51.8 °F - 41.0 °F 67% 30.18 in 7.0 mi South 6.9 mph - N/A   Clear
7:15 PM 48.7 °F - 40.8 °F 74% 30.17 in 10.0 mi Calm Calm - N/A   Clear
7:35 PM 46.2 °F 45.0 °F 41.7 °F 84% 30.17 in 10.0 mi SSW 3.5 mph - N/A   Clear
7:55 PM 47.5 °F - 44.1 °F 88% 30.17 in 10.0 mi SW 3.5 mph - N/A   Clear
8:15 PM 47.5 °F - 44.1 °F 88% 30.18 in 10.0 mi WSW 5.8 mph - N/A   Clear
8:35 PM 49.1 °F - 40.1 °F 71% 30.18 in 10.0 mi SW 5.8 mph - N/A   Clear
8:55 PM 48.6 °F - 40.8 °F 75% 30.19 in 10.0 mi WSW 4.6 mph - N/A   Clear
9:15 PM 48.0 °F - 41.7 °F 79% 30.19 in 10.0 mi WSW 4.6 mph - N/A   Clear
9:35 PM 47.1 °F - 41.9 °F 82% 30.19 in 10.0 mi Calm Calm - N/A   Clear
9:55 PM 46.4 °F 45.2 °F 41.9 °F 84% 30.19 in 10.0 mi WSW 3.5 mph - N/A   Clear
10:15 PM 46.4 °F 45.2 °F 41.4 °F 83% 30.19 in 10.0 mi SW 3.5 mph - N/A   Clear
10:35 PM 46.0 °F 44.8 °F 41.9 °F 85% 30.18 in 10.0 mi WSW 3.5 mph - N/A   Clear
10:55 PM 45.0 °F 43.5 °F 41.2 °F 87% 30.18 in 10.0 mi WSW 3.5 mph - N/A   Clear
11:15 PM 45.5 °F 44.2 °F 41.5 °F 86% 30.17 in 10.0 mi SW 3.5 mph - N/A   Clear
11:35 PM 45.5 °F 44.2 °F 41.9 °F 87% 30.17 in 10.0 mi WSW 3.5 mph - N/A   Clear
11:55 PM 45.5 °F 44.2 °F 42.3 °F 88% 30.16 in 10.0 mi WSW 3.5 mph - N/A   Clear